Total_Precipitation_Accumulation
0.48 0.47 0.47 0.50 0.85 1.11 1.07 1.16 0.95 0.90 1.09 1.18 1.36 1.45 1.31 1.17 1.14 1.23 1.21 1.28 1.54 1.61 1.61 1.54 1.40 1.41 1.71 1.81 1.78 1.81 2.00 2.23 2.37 1.63 1.14 1.01 0.95 0.92 1.02 1.05 1.05 0.87 0.96
0.50 0.46 0.66 0.42 0.45 0.71 0.96 0.94 0.75 0.56 0.55 0.63 0.55 0.58 0.58 0.77 0.87 0.82 0.86 0.96 1.06 1.10 1.20 1.38 1.28 1.24 1.26 1.26 1.37 1.46 1.52 1.61 1.84 1.62 1.21 1.17 1.12 1.07 1.07 1.14 1.15 1.08 0.98
0.49 0.53 0.78 0.83 0.69 0.77 0.74 0.72 0.52 0.50 0.46 0.54 0.56 0.51 0.47 0.43 0.47 0.45 0.41 0.49 0.65 0.83 0.97 1.04 1.00 1.13 1.17 1.26 1.40 1.52 1.56 1.67 1.82 1.80 1.42 1.19 1.10 1.08 1.14 1.12 1.06 1.04 1.01
0.59 0.50 0.54 0.93 0.74 0.79 0.64 0.66 0.54 0.46 0.54 0.47 0.50 0.46 0.46 0.47 0.44 0.53 0.62 0.52 0.49 0.49 0.54 0.66 0.78 1.02 1.17 1.34 1.45 1.43 1.43 1.50 1.43 1.42 1.22 0.93 0.73 0.65 0.75 0.71 0.69 0.63 0.57
0.61 0.65 0.65 1.00 0.94 1.08 0.78 0.83 0.74 0.63 0.57 0.63 0.59 0.69 0.60 0.52 0.57 0.63 0.66 0.66 0.56 0.54 0.60 0.60 0.57 0.75 0.91 0.94 1.06 1.16 1.30 1.41 1.48 1.47 1.18 0.91 0.66 0.48 0.42 0.38 0.46 0.43 0.43
0.68 0.61 0.81 0.90 1.51 1.68 1.40 1.30 0.99 1.14 0.89 0.84 0.76 0.61 0.69 0.76 1.18 1.00 0.91 0.89 0.88 0.82 0.70 0.74 0.92 1.04 0.84 0.79 0.71 0.66 0.69 0.85 1.01 1.06 1.03 0.89 0.71 0.65 0.69 0.74 0.76 0.75 0.61
0.88 0.99 1.10 1.53 1.95 1.84 1.52 1.70 1.55 1.25 1.16 1.01 0.95 0.97 0.86 0.83 1.17 1.10 1.08 1.03 1.09 1.07 1.13 0.98 0.73 0.70 0.74 0.53 0.56 0.61 0.56 0.56 0.56 0.52 0.53 0.41 0.38 0.40 0.62 0.75 0.73 0.66 0.53
1.07 1.23 1.87 2.78 2.49 2.44 2.01 1.73 1.84 1.38 1.17 1.28 1.23 1.25 1.36 1.50 1.51 1.27 1.24 1.03 1.05 0.98 0.89 0.94 0.89 0.72 0.53 0.43 0.48 0.53 0.45 0.32 0.27 0.31 0.35 0.48 0.61 0.64 0.80 0.99 0.92 0.82 0.65
1.75 1.65 1.98 2.22 2.07 2.34 2.11 1.83 1.40 1.59 1.36 1.47 1.30 1.16 1.22 1.37 1.33 1.00 0.95 0.93 0.86 0.74 0.58 0.48 0.60 0.64 0.67 0.62 0.47 0.48 0.36 0.43 0.56 0.51 0.47 0.59 0.70 0.76 0.79 0.98 1.10 1.19 1.04
1.50 1.43 1.56 1.73 1.59 1.63 1.60 1.39 1.12 1.04 1.08 1.04 1.13 1.20 1.30 1.03 1.05 0.83 0.63 0.57 0.67 0.65 0.66 0.55 0.65 0.68 0.71 0.65 0.49 0.39 0.49 0.33 0.41 0.42 0.40 0.33 0.47 0.56 0.63 0.66 0.68 1.13 0.96
1.24 1.36 1.21 1.33 1.08 1.15 1.19 1.12 0.91 0.74 0.81 0.91 0.92 0.89 0.76 0.78 0.76 0.81 0.72 0.46 0.45 0.58 0.56 0.55 0.35 0.52 0.74 0.69 0.63 0.52 0.52 0.55 0.55 0.55 0.46 0.44 0.41 0.45 0.43 0.41 0.39 0.76 1.15
0.76 0.91 0.78 0.70 0.78 0.74 0.70 0.81 0.82 0.61 0.58 0.51 0.47 0.49 0.47 0.52 0.68 0.59 0.58 0.61 0.68 0.53 0.57 0.56 0.62 0.68 0.78 0.76 0.74 0.81 0.76 0.73 0.58 0.53 0.57 0.49 0.35 0.29 0.28 0.24 0.28 0.30 0.39
0.27 0.33 0.46 0.58 0.54 0.52 0.58 0.58 0.54 0.52 0.48 0.41 0.33 0.32 0.39 0.40 0.43 0.59 0.54 0.54 0.63 0.62 0.61 0.85 1.07 0.93 0.82 0.79 0.73 0.74 0.66 0.55 0.48 0.46 0.45 0.43 0.33 0.27 0.35 0.45 0.45 0.44 0.46
0.31 0.31 0.39 0.50 0.53 0.51 0.65 0.70 0.65 0.54 0.47 0.35 0.33 0.32 0.32 0.33 0.32 0.36 0.47 0.60 0.69 0.79 0.85 0.92 1.01 0.90 0.76 0.65 0.57 0.54 0.51 0.50 0.48 0.44 0.47 0.43 0.47 0.56 0.53 0.46 0.62 0.55 0.73
0.22 0.33 0.44 0.53 0.52 0.60 0.74 0.87 0.83 0.69 0.68 0.59 0.46 0.43 0.43 0.40 0.45 0.73 0.78 0.78 0.81 0.88 0.97 0.82 0.76 0.71 0.66 0.67 0.53 0.47 0.50 0.52 0.53 0.43 0.51 0.47 0.42 0.47 0.51 0.58 0.77 0.78 0.93
0.22 0.27 0.44 0.58 0.57 0.66 0.77 0.96 1.14 1.06 0.86 0.77 0.70 0.60 0.55 0.67 0.66 0.76 0.84 1.02 1.15 1.23 1.22 0.94 0.79 0.69 0.64 0.69 0.67 0.63 0.53 0.54 0.49 0.54 0.52 0.55 0.62 0.58 0.62 0.57 0.70 0.90 0.97
0.31 0.36 0.46 0.61 0.58 0.65 0.76 0.65 0.71 0.90 0.93 0.81 0.66 0.56 0.53 0.48 0.60 0.67 0.82 1.04 1.18 1.34 1.14 0.71 0.65 0.64 0.73 0.73 0.67 0.66 0.63 0.46 0.57 0.76 0.92 0.90 0.95 0.92 0.89 0.77 0.72 0.82 0.80
0.30 0.49 0.49 0.52 0.60 0.74 0.82 0.77 0.75 0.71 0.80 0.86 0.87 0.81 0.66 0.64 0.73 0.81 0.82 0.87 0.80 0.89 0.73 0.58 0.63 0.67 0.67 0.78 0.81 0.70 0.67 0.75 0.86 0.94 1.13 1.17 1.20 1.27 1.05 0.88 0.81 0.97 1.00
0.24 0.34 0.41 0.49 0.54 0.73 0.76 0.78 0.81 0.85 0.87 0.85 0.85 1.09 0.90 0.95 1.05 0.98 0.88 0.80 0.51 0.41 0.48 0.58 0.61 0.69 0.65 0.62 0.66 0.81 0.87 0.87 0.93 1.04 0.95 1.03 1.04 1.35 1.05 0.82 0.88 0.90 1.03
0.21 0.53 0.58 0.45 0.48 0.59 0.66 0.72 0.75 0.80 0.89 0.82 0.75 0.74 0.87 1.21 1.10 0.77 0.62 0.58 0.54 0.48 0.46 0.47 0.43 0.46 0.49 0.56 0.61 0.71 0.81 0.79 0.82 0.75 0.74 0.83 0.90 1.16 1.15 0.94 0.91 1.06 0.83
0.30 0.38 0.59 0.52 0.45 0.50 0.58 0.62 0.66 0.83 0.88 0.82 0.80 0.86 1.17 1.26 0.95 0.64 0.52 0.52 0.48 0.49 0.54 0.56 0.48 0.43 0.45 0.49 0.61 0.65 0.65 0.59 0.63 0.75 0.81 0.81 0.93 1.08 0.82 0.94 0.99 0.98 0.94
0.33 0.41 0.47 0.53 0.50 0.53 0.59 0.64 0.73 0.81 0.80 0.84 0.85 1.01 1.28 1.07 0.65 0.60 0.58 0.52 0.50 0.54 0.60 0.74 0.65 0.50 0.60 0.74 0.77 0.76 0.61 0.52 0.56 0.84 0.85 0.80 0.92 0.96 0.89 0.96 0.97 0.98 0.87
0.50 0.60 0.66 0.69 0.61 0.72 0.81 0.62 0.66 0.75 0.87 0.90 0.81 0.80 0.96 0.84 0.58 0.53 0.47 0.43 0.48 0.53 0.50 0.63 0.68 0.53 0.45 0.64 0.85 1.08 1.05 0.65 0.71 1.07 1.28 0.96 0.89 0.92 1.06 1.17 1.05 0.96 0.73
0.71 0.82 0.90 0.80 0.76 0.81 0.74 0.73 0.79 0.98 1.07 1.00 0.86 0.82 0.72 0.64 0.63 0.53 0.47 0.49 0.49 0.43 0.44 0.53 0.55 0.58 0.60 0.66 0.70 0.80 0.99 0.98 1.19 1.31 1.64 1.86 1.46 1.12 1.14 1.10 0.95 0.88 0.86
0.78 0.98 1.19 1.14 1.07 0.99 0.92 0.82 0.81 0.93 1.02 0.96 0.97 0.84 0.73 0.70 0.67 0.48 0.44 0.53 0.53 0.48 0.41 0.45 0.53 0.58 0.62 0.72 0.70 0.73 0.92 1.03 1.34 1.53 1.66 1.55 1.35 1.11 1.05 0.99 0.85 0.91 0.80
1.06 1.18 1.39 1.42 1.25 1.09 1.01 1.00 0.98 1.00 1.06 1.05 1.00 0.84 0.74 0.68 0.62 0.53 0.43 0.49 0.54 0.53 0.50 0.52 0.56 0.60 0.64 0.64 0.63 0.76 0.84 0.80 0.96 1.05 1.37 1.58 1.42 1.13 0.99 1.00 0.88 1.02 0.89